# Land Stadt Wetter Temperatur Luftdruck Luftfeuchtigkeit Sichtweite Windgeschwindigkeit Windrichtung Ortszeit
1 ad Andorra la Vella Fog 12 1022 100 150 4 0 02.08.2018 14:22
2 ae Dubai Clear 39 1008 24 10000 18 180 02.08.2018 14:21
3 af Kabul Clear 30 1023 7 10000 8 180 02.08.2018 14:21
4 ar Buenos Aires Clear 16 1001 63 10000 21 330 02.08.2018 14:22
5 ar Esquel Clear 3 1011 69 10000 17 250 02.08.2018 14:22
6 ar Ushuaia Clouds 2 983 80 10000 8 270 02.08.2018 14:22
7 at Innsbruck Clouds 7 1025 71 10000 4 0 02.08.2018 14:23
8 at Wien Clear 10 1025 81 10000 9 150 02.08.2018 14:22
9 au Alice Springs Dust 33 1013 7 10000 28 340 02.08.2018 14:21
10 au Darwin Clear 32 1011 22 10000 22 20 02.08.2018 14:22
11 au Perth Clouds 15 1021 47 10000 37 200 02.08.2018 14:21
12 au Sydney Clouds 19 1025 72 10000 26 50 02.08.2018 14:22
13 bg Sofia Rain 10 1022 66 10000 9 230 02.08.2018 14:21
14 bg Warna Clouds 17 1020 59 10000 8 80 02.08.2018 14:21
15 bo La Paz Fog 3 1035 100 4000 13 70 02.08.2018 14:22
16 bo Potisi Clouds 2 1014 21 0 14 258 02.08.2018 14:22
17 br Manaus Clear 24 1008 78 10000 4 50 02.08.2018 14:21
18 br Rio de Janeiro Clouds 23 1009 94 7000 5 170 02.08.2018 14:22
19 bs Nassau Clouds 27 1013 65 10000 24 60 02.08.2018 14:22
20 ca Montreal Clear 7 1027 81 14484 3 103 02.08.2018 14:22
21 cd Kisangani Rain 24 1013 91 0 1 291 02.08.2018 14:23
22 ch Andermatt Clouds 9 1022 66 10000 24 60 02.08.2018 14:23
23 ch Bern Clear 8 1023 75 10000 5 10 02.08.2018 14:23
24 ck Avarua Clouds 22 1013 68 10000 5 160 02.08.2018 14:22
25 cl Santiago Clear 9 1016 76 10000 2 0 02.08.2018 14:23
26 cn Lhasa Clouds 14 1017 41 0 7 207 02.08.2018 14:22
27 cn Peking Clear 27 1018 50 10000 4 0 02.08.2018 14:23
28 cn Shanghai Clouds 26 1016 44 10000 22 20 02.08.2018 14:21
29 de Berlin Clouds 8 1025 87 10000 13 290 02.08.2018 14:21
30 de Braunschweig Clouds 8 1027 81 10000 9 280 02.08.2018 14:21
31 de Bremen Fog 8 1028 93 10000 5 230 02.08.2018 14:22
32 de Dresden Clouds 8 1026 81 10000 11 270 02.08.2018 14:22
33 de Emden Clouds 8 1029 71 10000 11 280 02.08.2018 14:21
34 de Flensburg Fog 7 1025 81 10000 13 300 02.08.2018 14:21
35 de Frankfurt Clear 8 1029 71 10000 15 30 02.08.2018 14:22
36 de Freiburg Clear 8 1026 66 10000 22 360 02.08.2018 14:22
37 de Hamburg Clear 7 1027 93 10000 4 0 02.08.2018 14:21
38 de Hannover Clear 8 1028 87 10000 8 260 02.08.2018 14:21
39 de Helgoland Clouds 13 1028 62 10000 13 330 02.08.2018 14:22
40 de Hiddensee Rain 13 1024 71 0 22 326 02.08.2018 14:21
41 de Kassel Fog 5 1028 100 10000 4 180 02.08.2018 14:21
42 de Köln Fog 6 1030 100 10000 2 0 02.08.2018 14:21
43 de Magdeburg Clear 9 1023 73 0 14 293 02.08.2018 14:22
44 de München Fog 4 1026 100 10000 7 18 02.08.2018 14:21
45 de Nürnberg Clear 5 1028 86 10000 4 0 02.08.2018 14:21
46 de Oberstdorf Clear 8 1025 76 10000 5 0 02.08.2018 14:21
47 de Stuttgart Clear 7 1027 70 10000 2 0 02.08.2018 14:22
48 de Torfhaus Clouds 8 1027 81 10000 9 280 02.08.2018 14:22
49 de Trier Clear 7 1028 81 10000 24 40 02.08.2018 14:21
50 do Santo Domingo Clouds 25 1009 100 0 6 357 02.08.2018 14:21
51 ec San Cristobal Clouds 19 1016 88 0 17 177 02.08.2018 14:22
52 eg Kairo Clouds 25 1014 78 6000 17 10 02.08.2018 14:22
53 es Barcelona Clouds 19 1017 72 10000 13 330 02.08.2018 14:22
54 es Las Palmas de Gran Canaria Clouds 21 1016 78 10000 24 360 02.08.2018 14:21
55 es Madrid Clear 16 1018 68 10000 4 0 02.08.2018 14:23
56 es Palma de Mallorca Clear 20 1017 88 10000 5 340 02.08.2018 14:22
57 es Sevilla Clouds 18 1016 82 10000 5 110 02.08.2018 14:22
58 es Tarifa Clear 19 1016 82 10000 9 100 02.08.2018 14:21
59 et Addis Abeba Clear 17 1018 75 0 3 173 02.08.2018 14:23
60 fi Helsinki Clear 4 1013 100 10000 4 0 02.08.2018 14:21
61 fi Rovaniemi Clouds 0 1010 80 10000 9 340 02.08.2018 14:21
62 fj Suva Clouds 24 1016 78 10000 11 120 02.08.2018 14:21
63 fr Bordeaux Clear 13 1018 47 10000 8 30 02.08.2018 14:21
64 fr Nizza Clouds 20 1016 73 10000 13 330 02.08.2018 14:22
65 fr Paris Clear 10 1028 76 10000 9 20 02.08.2018 14:22
66 gb Glasgow Clouds 12 1030 100 10000 5 250 02.08.2018 14:21
67 gb London Fog 7 1031 87 10000 5 340 02.08.2018 14:22
68 gb Manchester Fog 8 1031 93 10000 5 100 02.08.2018 14:21
69 gl Nuuk Clouds 1 1007 59 0 9 30 02.08.2018 14:22
70 gr Athen Clear 25 1014 53 10000 8 360 02.08.2018 14:22
71 id Jakarta Clouds 32 1010 55 9000 24 60 02.08.2018 14:22
72 ie Dublin Rain 7 1031 100 10000 4 320 02.08.2018 14:21
73 in Jagatsukh Clear 11 1018 19 0 7 193 02.08.2018 14:22
74 in Mumbai Haze 30 1006 79 3000 13 180 02.08.2018 14:22
75 in Nagpur Haze 28 1010 78 4000 8 40 02.08.2018 14:21
76 iq Bagdad Smoke 31 1012 23 10000 11 330 02.08.2018 14:22
77 is Reykjavik Rain 10 1004 100 3000 39 180 02.08.2018 14:22
78 it Mailand Rain 16 1018 82 10000 11 80 02.08.2018 14:21
79 it Palermo Clear 23 1014 83 10000 5 110 02.08.2018 14:22
80 it Rom Mist 21 1015 100 3500 9 350 02.08.2018 14:23
81 jp Nagasaki Clouds 30 1010 40 10000 22 40 02.08.2018 14:21
82 jp Tokio Clouds 26 1012 65 10000 21 120 02.08.2018 14:22
83 ke Nairobi Clear 17 1025 48 10000 13 160 02.08.2018 14:22
84 kr Seoul Dust 25 1019 44 10000 2 300 02.08.2018 14:21
85 ma Casablanca Clear 18 1017 100 10000 13 60 02.08.2018 14:23
86 ma Marrakesch Clear 19 1016 72 10000 9 230 02.08.2018 14:23
87 mg Antananarivo Clouds 21 1024 60 10000 5 140 02.08.2018 14:21
88 mn Ulaanbaatar Clouds 20 1021 24 10000 7 0 02.08.2018 14:23
89 mn Uliastai Clear 11 1022 39 0 4 272 02.08.2018 14:23
90 mv Male Clouds 31 1011 70 10000 17 240 02.08.2018 14:23
91 mx Mexiko Stadt Rain 14 1028 87 16093 6 266 02.08.2018 14:21
92 mx Veracruz Rain 26 1010 80 0 4 289 02.08.2018 14:21
93 no Hammerfest Rain 3 1009 64 10000 30 320 02.08.2018 14:22
94 no Oslo Clear 4 1023 65 10000 11 300 02.08.2018 14:23
95 nz Wellington Clear 11 1031 71 10000 18 360 02.08.2018 14:23
96 pe Cusco Clouds 10 1030 61 10000 2 58 02.08.2018 14:23
97 pg Port Moresby Haze 28 1009 78 10000 46 160 02.08.2018 14:21
98 ph Manila Rain 27 1007 88 8000 18 250 02.08.2018 14:21
99 pt Lissabon Clouds 17 1017 88 10000 5 340 02.08.2018 14:22
100 qa Doha Haze 34 1008 71 5000 5 0 02.08.2018 14:23
101 ru Amderma Clouds 5 994 80 0 9 264 02.08.2018 14:23
102 ru Anadyr Rain 5 1008 75 10000 4 340 02.08.2018 14:23
103 ru Jakutsk Clouds 8 1010 71 10000 18 100 02.08.2018 14:22
104 ru Moskau Clouds 8 1006 87 10000 18 300 02.08.2018 14:22
105 ru Surgut Rain 10 997 100 10000 14 230 02.08.2018 14:23
106 ru Werchojansk Clouds 8 1013 40 0 21 163 02.08.2018 14:22
107 sa Riad Clear 35 1015 15 10000 18 30 02.08.2018 14:21
108 sb Honiara Clouds 31 1009 62 10000 15 90 02.08.2018 14:22
109 se Stockholm Clear 7 1017 81 10000 15 310 02.08.2018 14:23
110 th Bangkok Clouds 30 1008 74 10000 9 330 02.08.2018 14:21
111 tr Alanya Smoke 25 1018 42 3000 8 22 02.08.2018 14:22
112 tr Ankara Clear 17 1019 36 10000 9 41 02.08.2018 14:23
113 tr Istanbul Clouds 22 1018 69 10000 26 60 02.08.2018 14:23
114 ua Kiew Clouds 8 1017 87 10000 18 270 02.08.2018 14:21
115 us Chicago Clouds 18 1019 72 16093 9 160 02.08.2018 14:23
116 us Death Valley Clear 17 1004 33 0 5 113 02.08.2018 14:22
117 us Denver Clear 14 1019 38 16093 6 316 02.08.2018 14:21
118 us Fairbanks Rain 8 996 100 16093 9 240 02.08.2018 14:23
119 us Honolulu Rain 26 1016 83 16093 8 70 02.08.2018 14:22
120 us Las Vegas Clear 25 1008 14 16093 15 220 02.08.2018 14:21
121 us Los Angeles Clear 18 1012 77 16093 8 160 02.08.2018 14:22
122 us Miami Rain 27 1014 78 16093 11 30 02.08.2018 14:23
123 us New York Clear 12 1027 54 16093 13 130 02.08.2018 14:22
124 us Nome Clear 3 1001 86 16093 8 330 02.08.2018 14:23
125 us Tucson Clear 25 1012 34 16093 8 100 02.08.2018 14:21
126 uy Montevideo Clear 12 1003 71 10000 17 20 02.08.2018 14:22
127 vn Hanoi Rain 26 1013 88 7000 4 0 02.08.2018 14:21
128 za Kapstadt Clear 19 1009 87 10000 4 0 02.08.2018 14:22